User: anonymous   Login
Location: Ostrava
(49.8330°N, 18.2830°E)
Time: 22:46:36
(UTC+02:00)
Language:

Explorer 7 - Orbit

View from above orbital plane
View from above orbital plane
View from above satellite
View from above satellite

Ground track
Ground track

The orbit data is extracted from the following two-line orbital elements,

1 00022U 59009A   17295.20070219  .00000300  00000-0  46159-4 0  9994
2 00022  50.2849 327.1544 0141587 157.7892 202.9270 14.94327464 80346
Epoch (UTC): 22 October 2017 04:49:00
Eccentricity: 0.0141587
inclination: 50.2849°
perigee height: 486 km
apogee height: 683 km
right ascension of ascending node: 327.1544°
argument of perigee: 157.7892°
revolutions per day: 14.94327464
mean anomaly at epoch: 202.9270°
orbit number at epoch: 8034

The dashed part of the orbit path shows where the satellite is in the earth's shadow,  

DLR